Weather History for Georgetown, TX

Change the Weather History Date:

Friday, April 26, 2013

  Actual Average Record
Temperature  
Mean Temperature 68 °F -  
Max Temperature 78 °F 79 °F 93 °F (2011)
Min Temperature 59 °F 58 °F 46 °F (2001)
Cooling Degree Days 3    
Growing Degree Days 18 (Base 50)    
Moisture  
Dew Point 60 °F    
Average Humidity 79    
Maximum Humidity 100    
Minimum Humidity 45    
Precipitation  
Precipitation 0.00 in - - ()
Sea Level Pressure  
Sea Level Pressure 30.08 in    
Wind  
Wind Speed 8 mph (SSE)    
Max Wind Speed 15 mph    
Max Gust Speed 25 mph    
Visibility 7 miles    
Events Fog , Rain    
Averages and records for this station are not official NWS values.
T = Trace of Precipitation, MM = Missing Value Source: NWS Daily Summary

Daily Weather History Graph

Daily Weather History Graph

Search for Another Location

Airport:

Trip Planner

Search our weather history database for the weather conditions in past years. The results will help you decide how hot, cold, wet, or windy it might be!

Date:

Astronomy

Apr. 26, 2013 Rise Set
Actual Time 6:51 AM CDT 8:06 PM CDT
Civil Twilight 6:26 AM CDT 8:31 PM CDT
Nautical Twilight 5:55 AM CDT 9:01 PM CDT
Astronomical Twilight 5:24 AM CDT 9:32 PM CDT
Moon 9:24 PM CDT (4/26) 7:23 AM CDT (4/26)
Length of Visible Light 14h 05m
Length of Day
13h 14m
Full, 99% of the Moon is Illuminated
Apr 26
Full
May 2
Last Quarter
May 9
New
May 17
First Quarter
May 24
Full

Hourly Weather History & Observations

Time (CDT) Temp. Dew Point Humidity Pressure Visibility Wind Dir Wind Speed Gust Speed Precip Events Conditions
12:15 AM 64.4 °F 42.8 °F 45% - 10.0 mi SSE 6.9 mph - N/A   Overcast
12:35 AM 64.4 °F 42.8 °F 45% - 10.0 mi SSE 8.1 mph - N/A   Overcast
12:55 AM 64.4 °F 42.8 °F 45% - 10.0 mi South 11.5 mph - N/A   Overcast
1:15 AM 64.4 °F 42.8 °F 45% - 10.0 mi South 10.4 mph - N/A   Overcast
1:35 AM 64.4 °F 44.6 °F 49% - 10.0 mi SSE 9.2 mph - N/A   Overcast
1:55 AM 64.4 °F 48.2 °F 56% - 10.0 mi SSE 13.8 mph 18.4 mph N/A   Overcast
2:15 AM 62.6 °F 51.8 °F 68% - 10.0 mi SSE 11.5 mph 19.6 mph N/A   Overcast
2:35 AM 62.6 °F 53.6 °F 72% - 10.0 mi South 11.5 mph 17.3 mph N/A   Overcast
2:55 AM 62.6 °F 53.6 °F 72% - 10.0 mi SSE 11.5 mph 18.4 mph N/A   Overcast
3:15 AM 62.6 °F 55.4 °F 77% - 10.0 mi South 10.4 mph - N/A   Overcast
3:35 AM 62.6 °F 55.4 °F 77% - 10.0 mi SSE 9.2 mph - N/A   Overcast
3:55 AM 62.6 °F 55.4 °F 77% - 10.0 mi South 10.4 mph 16.1 mph N/A   Overcast
4:15 AM 60.8 °F 55.4 °F 82% - 10.0 mi South 9.2 mph - N/A   Overcast
4:35 AM 60.8 °F 55.4 °F 82% - 10.0 mi South 8.1 mph - N/A   Overcast
4:55 AM 59.0 °F 57.2 °F 94% - 10.0 mi SSE 4.6 mph - N/A   Overcast
5:15 AM 60.8 °F 57.2 °F 88% - 8.0 mi SSE 4.6 mph - N/A   Overcast
5:35 AM 60.8 °F 57.2 °F 88% - 5.0 mi SSE 4.6 mph - N/A   Overcast
5:55 AM 60.8 °F 57.2 °F 88% - 4.0 mi SE 3.5 mph - N/A   Overcast
6:15 AM 60.8 °F 59.0 °F 94% - 3.0 mi SSE 3.5 mph - N/A   Overcast
6:35 AM 60.8 °F 59.0 °F 94% - 2.5 mi SSE 3.5 mph - N/A   Overcast
6:46 AM 60.8 °F 59.0 °F 94% 30.09 in 1.0 mi SSE 4.6 mph - N/A   Overcast
7:47 AM 60.8 °F 60.8 °F 100% 30.11 in 0.5 mi SE 4.6 mph - N/A Fog Fog
8:47 AM 62.6 °F 60.8 °F 94% 30.13 in 0.5 mi Calm Calm - N/A Fog Fog
9:26 AM 62.6 °F 62.6 °F 100% 30.13 in 0.2 mi Calm Calm - N/A Fog Fog
9:47 AM 62.6 °F 62.6 °F 100% 30.12 in 0.2 mi SSW 3.5 mph - N/A Fog Fog
10:18 AM 64.4 °F 64.4 °F 100% 30.13 in 0.8 mi SE 4.6 mph - N/A   Overcast
10:47 AM 66.2 °F 66.2 °F 100% 30.13 in 2.0 mi SSE 6.9 mph - N/A   Overcast
11:10 AM 68.0 °F 66.2 °F 94% 30.12 in 4.0 mi SSE 5.8 mph - N/A   Overcast
11:47 AM 69.8 °F 68.0 °F 94% 30.10 in 6.0 mi South 10.4 mph - N/A   Overcast
12:46 PM 73.4 °F 66.2 °F 78% 30.09 in 7.0 mi South 11.5 mph 18.4 mph N/A   Overcast
1:47 PM 77.0 °F 64.4 °F 65% 30.07 in 7.0 mi South 13.8 mph 25.3 mph N/A   Overcast
2:48 PM 75.2 °F 66.2 °F 73% 30.08 in 7.0 mi South 13.8 mph 23.0 mph N/A Rain Light Rain
3:48 PM 75.2 °F 66.2 °F 73% 30.07 in 7.0 mi SSW 8.1 mph - N/A Rain Light Rain
4:47 PM 73.4 °F 69.8 °F 88% 30.05 in 7.0 mi Calm Calm - N/A   Overcast
5:48 PM 73.4 °F 69.8 °F 88% 30.02 in 10.0 mi SSE 6.9 mph - N/A   Mostly Cloudy
6:47 PM 77.0 °F 68.0 °F 74% 30.00 in 10.0 mi SSE 8.1 mph - N/A   Partly Cloudy
7:48 PM 75.2 °F 66.2 °F 73% 30.02 in 10.0 mi South 9.2 mph - N/A   Overcast
8:48 PM 75.2 °F 66.2 °F 73% 30.04 in 10.0 mi South 12.7 mph 19.6 mph N/A   Overcast
9:48 PM 73.4 °F 66.2 °F 78% 30.05 in 10.0 mi SSE 9.2 mph - N/A   Partly Cloudy
10:15 PM 73.4 °F 66.2 °F 78% - 10.0 mi SSE 9.2 mph - N/A   Mostly Cloudy
10:35 PM 73.4 °F 66.2 °F 78% - 10.0 mi South 15.0 mph 21.9 mph N/A   Mostly Cloudy
10:55 PM 73.4 °F 66.2 °F 78% - 10.0 mi SSE 10.4 mph - N/A   Overcast
11:15 PM 71.6 °F 66.2 °F 83% - 10.0 mi South 11.5 mph 17.3 mph N/A   Overcast
11:35 PM 71.6 °F 66.2 °F 83% - 10.0 mi South 15.0 mph 18.4 mph N/A   Overcast
11:55 PM 71.6 °F 66.2 °F 83% - 10.0 mi South 9.2 mph 17.3 mph N/A   Overcast